#timestamp,LO_Frequency,Hit,StdDev 
1653253215.0,286046998.8,N
1653253215.9,286046998.8,P
1653253235.8,286046998.5,P
1653253255.6,286046998.1,Y
1653253275.5,286047002.4,P
1653253295.3,286047000.3,N
1653253315.1,286047000.0,N
1653253335.9,286047000.4,N
1653253355.7,286047000.6,N
1653253375.6,286047002.4,N
1653253395.4,286047000.5,N
1653253415.2,286047000.9,N
1653253435.1,286047000.6,N
1653253436.0,286047000.6,N
1653253455.8,286047001.0,N
1653253475.6,286046998.6,N
1653253495.5,286046998.5,N
1653253515.3,286046998.4,N
1653253535.2,286047001.2,N
1653253555.9,286047000.8,N
1653253575.7,286046998.4,N
1653253595.6,286046998.5,N
1653253615.4,286046998.6,N
1653253635.2,286047000.6,N
1653253655.1,286047000.7,N
1653253656.0,286047000.7,N
1653253675.8,286047001.0,N
1653253695.7,286046999.9,N
1653253715.5,286047002.3,N
1653253735.3,286046999.8,N
1653253755.2,286047001.2,N
1653253775.9,286046999.6,N
1653253795.7,286046998.9,N
1653253815.6,286046999.4,N
1653253835.4,286046996.9,N
1653253855.3,286046997.1,N
1653253875.1,286046996.6,N
1653253876.0,286046996.6,N
1653253895.8,286046996.7,N
1653253915.7,286046998.7,N
1653253935.5,286046999.5,N
1653253955.3,286046996.9,N
1653253975.2,286046997.3,N
1653253995.0,286046997.1,N
1653253995.9,286046997.1,N
1653254015.8,286046997.3,N
1653254035.6,286046997.9,N
1653254055.4,286046997.6,N
1653254075.3,286046997.0,N
1653254095.1,286046995.3,N
1653254115.9,286046995.4,N
1653254135.7,286046995.1,N
1653254155.5,286046994.9,N
1653254175.4,286046996.8,N
1653254195.2,286046997.1,N
1653254215.0,286046999.5,N
1653254215.9,286046999.5,N
1653254235.8,286046999.0,N
1653254255.6,286046998.5,N
1653254275.5,286046996.6,N
1653254295.3,286046997.9,N
1653254315.1,286046996.9,N
1653254335.9,286046997.1,N
1653254355.7,286046997.0,N
1653254375.6,286046997.2,N
1653254395.4,286046996.7,N
1653254415.2,286046998.0,N
1653254435.1,286046997.2,N
1653254436.0,286046997.2,N
1653254455.8,286046997.4,N
1653254475.6,286046994.9,Y
1653254495.5,286046998.1,P
1653254515.3,286046998.1,P
1653254535.2,286046998.2,P
1653254555.9,286046999.7,N
1653254575.7,286046999.7,N
1653254595.6,286047000.2,N
1653254615.4,286047000.0,N
1653254635.3,286047000.3,N
1653254655.1,286047000.3,N
1653254656.0,286047000.3,N
1653254675.8,286047000.1,N
1653254695.7,286047001.1,N
1653254715.5,286046998.1,N
1653254735.3,286046998.1,N
1653254755.2,286046998.7,N
1653254775.0,286046999.3,N
1653254775.9,286046999.3,N
1653254795.8,286046998.5,N
1653254815.6,286046998.8,N
1653254835.4,286046996.6,Y
1653254855.3,286046999.0,P
1653254875.1,286046998.4,P
1653254895.8,286046999.1,N
1653254915.7,286046999.4,N
1653254935.5,286046998.5,Y
1653254955.4,286046999.9,P
1653254975.2,286047002.7,P
1653254995.0,286047000.5,N
1653254995.9,286047000.5,N
1653255015.8,286047001.1,N
1653255035.6,286047001.2,N
1653255055.5,286046998.5,N
1653255075.3,286047001.0,N
1653255095.1,286046998.1,N
1653255115.9,286046998.1,N
1653255135.7,286046998.4,N
1653255155.5,286046997.1,N
1653255175.4,286046998.9,N
1653255195.2,286046998.1,N
1653255215.1,286047000.8,N
1653255216.0,286047000.8,N
1653255235.8,286047000.2,N
1653255255.6,286047000.3,N
1653255275.5,286046998.6,N
1653255295.3,286047000.9,N
1653255315.1,286047000.9,N
1653255335.9,286047002.5,N
1653255355.7,286047001.6,N
1653255375.6,286047002.1,N
1653255395.4,286047003.1,N
1653255415.2,286047003.0,N
1653255435.1,286047003.8,N
1653255436.0,286047003.8,N
1653255455.8,286047004.0,N
1653255475.7,286047004.1,N
1653255495.5,286047003.9,N
1653255515.3,286047004.3,N
1653255535.2,286047001.5,N
1653255555.0,286047001.6,N
1653255555.9,286047001.6,N
1653255575.8,286047003.2,N
1653255595.6,286047003.5,N
1653255615.4,286047005.5,N
1653255635.3,286047003.2,N
1653255655.1,286047001.3,N
1653255675.8,286047001.4,N
1653255695.7,286047004.3,N
1653255715.5,286047003.9,N
1653255735.4,286047003.5,N
1653255755.2,286047003.9,N
1653255775.0,286047003.2,N
1653255775.9,286047003.2,N
1653255795.8,286047004.1,N
1653255815.6,286047003.2,N
1653255835.4,286047003.7,Y
1653255855.3,286047000.3,P
1653255875.1,286047000.1,N
1653255895.9,286047000.5,N
1653255915.7,286047002.8,N
1653255935.5,286047002.5,N
1653255955.4,286047002.2,N
1653255975.2,286047002.3,N
1653255995.0,286047002.4,N
1653255996.0,286047002.4,N
1653256015.8,286047002.7,N
1653256035.6,286047002.3,N
1653256055.5,286047000.1,N
1653256075.3,286047002.2,N
1653256095.1,286047001.3,N
1653256115.9,286047001.4,N
1653256135.7,286047003.9,Y
1653256155.6,286046999.8,P
1653256175.4,286047002.0,N
1653256195.2,286047001.6,N
1653256215.1,286047002.0,N
1653256216.0,286047002.0,N
1653256235.8,286047002.2,N
1653256255.6,286047002.7,Y
1653256275.5,286047001.1,P
1653256295.3,286047000.7,N
1653256315.2,286047000.9,N
1653256335.9,286047000.0,N
1653256355.7,286047000.8,N
1653256375.6,286047001.0,N
1653256395.4,286047000.4,N
1653256415.2,286047001.6,Y
1653256435.1,286047001.1,P
1653256436.0,286047001.1,P
1653256455.8,286047001.2,P
1653256475.7,286047001.1,Y
1653256495.5,286046998.9,P
1653256515.3,286046998.8,N
1653256535.2,286046999.0,N
1653256555.0,286046998.9,N
1653256555.9,286046998.9,N
1653256575.8,286046999.0,N
1653256595.6,286046999.1,N
1653256615.4,286046998.4,N
1653256635.3,286046999.4,N
1653256655.1,286046996.5,Y
1653256675.8,286046998.2,P
1653256695.7,286046998.2,P
1653256715.5,286046998.5,P
1653256735.4,286047001.1,N
1653256755.2,286047000.4,N
1653256775.0,286047000.3,N
1653256775.9,286047000.3,N
1653256795.8,286047000.5,N
